Location: Aldenham
(51.6667°N, 0.3500°W)
Time: 17:57:34
(UTC+00:00)

Thor Agena Rocket - Pass Details

Date: 18 November 2025
Orbit: 755 x 802 km, 99.1° (Epoch: 09 December)

Event Time Altitude Azimuth Distance (km) Brightness Sun altitude
Rises 17:22:19 0° 175° (S) 3,300 6.9 -11.5°
Reaches altitude 10° 17:24:41 10° 179° (S) 2,375 6.2 -11.8°
Maximum altitude 17:29:52 57° 258° (WSW) 943 4.4 -12.6°
Drops below altitude 10° 17:35:04 10° 337° (NNW) 2,386 6.2 -13.4°
Sets 17:37:27 0° 342° (NNW) 3,317 6.9 -13.7°
